Regional Weather Roundup
Issued by NWS Charleston, SC

Current Version | Previous Version | Graphics & Text | Print | Product List | Glossary On
Versions: 1 2 3 4 5 6 7 8 9 10 11 12 13 14 15 16 17 18 19 20 21 22 23 24 25 26 27 28 29 30 31 32 33 34 35 36 37 38 39 40 41 42 43 44 45 46 47 48 49 50
000 ASUS42 KCHS 192227 RWRCHS REGIONAL WEATHER ROUNDUP NATIONAL WEATHER SERVICE CHARLESTON SC 600 PM EDT SAT AUG 19 2017 NOTE: "FAIR" INDICATES FEW OR NO CLOUDS BELOW 12,000 FEET WITH NO SIGNIFICANT WEATHER AND/OR OBSTRUCTIONS TO VISIBILITY. NOT ALL STATIONS ARE QUALITY CONTROLLED. USE DATA WITH CAUTION... ESPECIALLY DEWPOINT OBSERVATIONS. SCZ027-030-031-034>040-042>050-192300- ...SOUTHEAST SOUTH CAROLINA... CITY SKY/WX TMP DP RH WIND PRES REMARKS N CHARLESTON MOSUNNY 91 77 63 S8 29.91R HX 104 WATERFRONT PRK N/A N/A N/A N/A S12 29.76R JOHNS ISLAND FAIR 88 81 79 S12 29.93R HX 105 PINOPOLIS N/A 91 73 55 W5 29.84R HX 100 MONCKS CORNER FAIR 91 64 40 CALM 29.92S HX 93 SUMMERVILLE FAIR 91 70 49 CALM 29.93R HX 97 BEAUFORT MCAS SUNNY 92 79 65 VRB5 29.92R HX 108 BEAUFORT ARPT FAIR 90 75 62 S8 29.92R HAZE HX 100 HILTON HEAD IS SUNNY 88 79 74 S12 29.93F HX 102 WALTERBORO CLEAR 91 68 46 NW3 29.93S HX 95 ALLENDALE NOT AVBL ...SOUTHERN MIDLANDS AND PEE DEE... CITY SKY/WX TMP DP RH WIND PRES REMARKS GEORGETOWN MOCLDY 88 79 74 SW3 29.93S HX 102 KINGSTREE FAIR 91 66 43 SW5 29.91S HX 94 ORANGEBURG SUNNY 93 62 35 W6 29.92S HX 93 BARNWELL FAIR 93 66 40 W6 29.93R HX 96 AIKEN FAIR 90 66 45 S6 29.97R HX 92 MANNING FAIR 91 72 52 W17 29.92S HX 98 COLUMBIA MOSUNNY 96 65 35 W8 29.90R HX 98 SUMTER MOSUNNY 95 61 32 S8 29.89R HX 95 FLORENCE PTSUNNY 92 68 45 SW6 29.91S HX 96 MYRTLE BEACH PTSUNNY 84 75 74 SW6 29.94S HX 92 N MYRTLE BEACH CLOUDY 79 76 90 NE3 29.94S $$ GAZ063-065-086>088-099>101-113>116-118-119-134>141-150-192300- ...SOUTHEAST GEORGIA... CITY SKY/WX TMP DP RH WIND PRES REMARKS SAVANNAH ARPT MOSUNNY 94 67 41 SW3 29.91S HX 97 HUNTER AAF MOSUNNY 88 78 71 S10 29.90R HX 101 FORT STEWART CLOUDY 96 65 36 W6 29.89S HX 99 STATESBORO SUNNY 93 57 29 W3 29.92S HX 92 SYLVANIA CLEAR 92 69 46 NW6 29.93S HX 97 CLAXTON FAIR 94 67 40 N5 29.92S HX 98 ...CSRA...CENTRAL AND FAR SOUTHEAST GEORGIA... CITY SKY/WX TMP DP RH WIND PRES REMARKS THOMSON SUNNY 88 68 51 N5 29.99S HX 92 AUGUSTA-BUSH SUNNY 94 66 39 W5 29.91S HX 97 AUGUSTA-DANIEL SUNNY 93 62 35 VRB6 29.94S HX 93 SWAINSBORO FAIR 91 64 40 NW3 29.94S HX 93 VIDALIA SUNNY 95 66 38 W5 29.93S HX 98 EASTMAN FAIR 94 42 16 CALM 29.95F HX 90 HAZLEHURST FAIR 96 33 11 CALM 29.92S HX 90 ALMA SUNNY 95 64 35 W7 29.92S HX 97 WAYCROSS PTSUNNY 94 62 34 NW3 29.91F HX 95 JESUP FAIR 97 63 32 CALM 29.92S HX 98 BAXLEY FAIR 93 61 33 N5 29.91F HX 93 BRUNSWICK TSTM 77 72 83 E3 29.95S SAINT SIMONS CLOUDY 85 68 56 NW5 29.95R THUNDER $$ SCZ027-028-034-036>038-045-046-048>050-GAZ119-141-192300- ...LAKE AND SUPPLEMENTAL COASTAL OBSERVATIONS... STATION/POSITION TIME TEMP WIND PRES WAVE SWELL AIR SEA DIR/SP/G HT/PER HT/PER/DIR (UTC) (F) (DEG/KT/KT) (MB) (FT/S) (FT/S/D) WINYAH BAY 2145 86 80/ 5 1013.0S LAKE MURRAY 2120 90 220/ 7/ 9 1011.9R ACE BASIN NERRS 2145 91 CALM 1013.0S FORT PULASKI 2200 88 87 190/ 6/ 9 1013.7 SAPELO ISLAND 2200 81 CALM 1014.0 $$ ANZ835-935-AMZ111-154-330-350-352-354-370-450-454-472-192300- ...C-MAN AND BUOY OBSERVATIONS... STATION/POSITION TIME TEMP WIND PRES WAVE SWELL AIR SEA DIR/SP/G HT/PER HT/PER/DIR (UTC) (F) (DEG/KT/KT) (MB) (FT/S) (FT/S/D) BUOY 41004 2210 84 85 210/ 12/ 14 1013.5 BUOY 41008 2150 85 86 190/ 14/ 14 1013.2S 2/ 8 2/130/ 8 FOLLY BEACH CMAN 2200 85 210/ 14/ 16 1014.2R CAPERS NEARSHORE 2208 83 86 210/ 14/ 17 1013.1R FRIPP NEARSHORE 2208 85 190/ 12/ 16 1012.9R STATION/POSITION TIME TEMP WIND PRES WAVE SWELL AIR SEA DIR/SP/G HT/PER HT/PER/DIR (UTC) (F) (DEG/KT/KT) (MB) (FT/S) (FT/S/D) 5E ST. MARYS GA 2200 85 N/A 2/ 8 FRYING PAN BUOY 2210 85 84 230/ 12/ 16 1013.7 BUOY 41025 2150 79 84 280/ 19/ 25 1013.7F 3/ 7 2/180/ 7 CAPE LOOKOUT NC 2200 81 310/ 4/ 5 1014.1F BUOY 41002 2150 84 85 190/ 12/ 14 1015.8S 4/ 9 3/100/ 9 BUOY 41010 2210 85 86 130/ 6/ 8 1014.7 ST AUGUSTINE FL 2200 84 84 140/ 12/ 14 1014.0F $$

USA.gov is the U.S. government's official web portal to all federal, state and local government web resources and services.